Location: Raitis
(47.2167°N, 11.3833°E)
Time: 12:08:44
(UTC+00:00)

CZ-2C R/B - Pass Details

Date: 03 March 2021
Orbit: 783 x 871 km, 98.2° (Epoch: 22 April)

Event Time Altitude Azimuth Distance (km) Brightness Sun altitude
Rises 18:00:07 0° 17° (NNE) 3,434 5.7 -10.5°
Reaches altitude 10° 18:02:36 10° 23° (NNE) 2,482 4.9 -10.9°
Maximum altitude 18:07:58 51° 99° (E) 1,040 2.8 -11.9°
Drops below altitude 10° 18:13:10 10° 175° (S) 2,408 5.0 -12.7°
Sets 18:15:32 0° 180° (S) 3,322 5.8 -13.1°
